Terug naar catalogus

COSMOS 1932 DEB

ActiefLEO
NORAD 28275·DEBRIS·🇷🇺 Russia

Gelanceerd Mar 14, 1988 vanaf Baikonur Cosmodrome

Loading…

Volgende Passages (komende 24 uur)

TLE

VerouderdSource: Space-Track

Epoch: Aug 27, 2026, 15:47 UTC

1 28275U 88019F   26239.65784900  .00000083  00000-0  15526-3 0  9994
2 28275  65.0426 246.1200 0052140 218.1725 253.4979 13.82844544653491

Volg COSMOS 1932 DEB in realtime met AllMySat

Download on the App Store